Date String (YYYY-MM-DD hh:mm:ss) UTC,Instrument flags,absolute air pressure of the measurement (hPa),sample flow rate (lpm),inlet stack bypass flow (lpm),air temperature of the measurement (°C),ambient temperature measured by the external sensor (°C),aerosol sample conditioner tube jacket temperature (°C),OPC LED temperature (°C),internal box temperature (°C),relative humidity of the measurement (%),span deviation,mass concentration of particles derived from Lorenz-Mie calculation of OPC scattering (μg/m³),mass concentration of particles derived from Lorenz-Mie calculation of OPC scattering (μg/m³),mass concentration of particles derived from Lorenz-Mie calculation of OPC scattering (μg/m³)
DateTimeUTC,F1_M11,P_M11,Q1_M11,Q2_M11,T1_M11,T2_M11,T3_M11,T4_M11,T5_M11,U1_M11,ZSPAN_M11,X0_M11,X2_M11,X1_M11
2023-11-26 10:00:00,SystemResetWarning,0831.4,5.01,000.00,018.8,017.9,000.0,027.2,020.2,11.1,0000.0,0003.63,0001.96,0001.70
2023-11-26 10:01:00,SystemResetWarning,0831.4,5.02,000.00,018.9,018.6,000.0,027.2,020.7,11.1,0000.0,0003.62,0001.97,0001.70
2023-11-26 10:02:00,SystemResetWarning,0831.5,4.99,000.00,019.0,019.2,000.0,027.2,020.8,11.0,0000.0,0003.66,0001.98,0001.71
2023-11-26 10:03:00,SystemResetWarning,0831.4,4.99,000.00,019.0,019.1,000.0,027.2,020.3,11.0,0000.0,0003.65,0001.98,0001.72
2023-11-26 10:04:00,SystemResetWarning,0831.4,5.01,000.00,019.0,018.8,000.0,027.2,020.0,11.1,0000.0,0003.66,0002.00,0001.73
2023-11-26 10:05:00,SystemResetWarning,0831.4,5.01,000.00,018.9,018.5,000.0,027.2,020.0,11.2,0000.0,0002.72,0001.97,0001.73
2023-11-26 10:06:00,SystemResetWarning,0831.3,5.00,000.00,018.9,018.3,000.0,027.3,020.0,11.4,0000.0,0003.86,0002.00,0001.74
2023-11-26 10:07:00,SystemResetWarning,0831.4,4.99,000.00,018.8,018.1,000.0,027.3,020.0,11.5,0000.0,0003.97,0001.99,0001.74
2023-11-26 10:08:00,SystemResetWarning,0831.4,5.00,000.00,018.8,018.0,000.0,027.3,020.0,11.6,0000.0,0004.05,0002.02,0001.74
2023-11-26 10:09:00,SystemResetWarning,0831.3,4.98,000.00,018.8,017.9,000.0,027.3,020.0,11.6,0000.0,0004.30,0002.08,0001.75
2023-11-26 10:10:00,SystemResetWarning,0831.3,5.00,000.00,018.8,017.8,000.0,027.3,020.0,11.5,0000.0,0004.33,0002.10,0001.75
2023-11-26 10:11:00,SystemResetWarning,0831.3,5.01,000.00,018.8,018.1,000.0,027.2,020.4,11.6,0000.0,0004.39,0002.13,0001.77
2023-11-26 10:12:00,SystemResetWarning,0831.3,5.00,000.00,019.0,018.9,000.0,027.2,020.8,11.5,0000.0,0004.38,0002.13,0001.78
2023-11-26 10:13:00,SystemResetWarning,0831.4,4.98,000.00,019.0,019.1,000.0,027.2,020.5,11.5,0000.0,0004.36,0002.13,0001.78
2023-11-26 10:14:00,SystemResetWarning,0831.3,5.00,000.00,018.9,018.8,000.0,027.2,020.0,11.5,0000.0,0004.33,0002.11,0001.78
2023-11-26 10:15:00,SystemResetWarning,0831.3,5.00,000.00,018.9,018.5,000.0,027.2,020.0,11.6,0000.0,0004.27,0002.09,0001.77
2023-11-26 10:16:00,SystemResetWarning,0831.3,5.00,000.00,018.9,018.3,000.0,027.3,020.0,11.8,0000.0,0004.09,0002.12,0001.79
2023-11-26 10:17:00,SystemResetWarning,0831.3,5.00,000.00,018.8,018.2,000.0,027.3,020.0,11.9,0000.0,0002.94,0002.11,0001.81
2023-11-26 10:18:00,SystemResetWarning,0831.3,4.99,000.00,018.8,018.0,000.0,027.3,020.0,11.9,0000.0,0002.79,0002.10,0001.83
2023-11-26 10:19:00,SystemResetWarning,0831.3,5.00,000.00,018.8,017.9,000.0,027.3,020.0,11.9,0000.0,0002.72,0002.09,0001.84
2023-11-26 10:20:00,SystemResetWarning,0831.3,5.00,000.00,018.8,017.7,000.0,027.3,020.0,12.0,0000.0,0002.50,0002.04,0001.85
2023-11-26 10:21:00,SystemResetWarning,0831.3,5.01,000.00,018.8,017.9,000.0,027.2,020.3,12.0,0000.0,0002.45,0002.04,0001.87
2023-11-26 10:22:00,SystemResetWarning,0831.3,5.00,000.00,018.9,018.7,000.0,027.2,020.7,11.9,0000.0,0002.41,0002.04,0001.88
2023-11-26 10:23:00,SystemResetWarning,0831.3,4.99,000.00,019.0,019.0,000.0,027.2,020.6,11.8,0000.0,0002.58,0002.09,0001.91
2023-11-26 10:24:00,SystemResetWarning,0831.3,4.99,000.00,019.0,018.8,000.0,027.2,020.1,11.9,0000.0,0002.55,0002.10,0001.93
2023-11-26 10:25:00,SystemResetWarning,0831.3,5.00,000.00,018.9,018.5,000.0,027.2,020.0,11.9,0000.0,0002.60,0002.15,0001.96
2023-11-26 10:26:00,SystemResetWarning,0831.3,5.01,000.00,018.9,018.3,000.0,027.3,020.0,11.8,0000.0,0002.64,0002.20,0002.00
2023-11-26 10:27:00,SystemResetWarning,0831.3,5.00,000.00,018.8,018.1,000.0,027.3,020.0,11.6,0000.0,0002.64,0002.21,0002.01
2023-11-26 10:28:00,SystemResetWarning,0831.2,5.00,000.00,018.8,018.0,000.0,027.3,020.0,11.2,0000.0,0002.73,0002.25,0002.02
2023-11-26 10:29:00,SystemResetWarning,0831.2,5.00,000.00,018.8,017.9,000.0,027.3,020.0,10.9,0000.0,0002.75,0002.27,0002.03
2023-11-26 10:30:00,SystemResetWarning,0831.2,5.00,000.00,018.8,017.8,000.0,027.3,020.0,10.9,0000.0,0002.78,0002.28,0002.03
2023-11-26 10:31:00,SystemResetWarning,0831.2,5.00,000.00,018.8,017.9,000.0,027.2,020.2,10.9,0000.0,0002.95,0002.29,0002.03
2023-11-26 10:32:00,SystemResetWarning,0831.2,5.01,000.00,018.9,018.6,000.0,027.2,020.6,10.9,0000.0,0003.03,0002.28,0002.01
2023-11-26 10:33:00,SystemResetWarning,0831.2,4.99,000.00,019.0,019.1,000.0,027.2,020.6,10.9,0000.0,0002.98,0002.24,0001.99
2023-11-26 10:34:00,SystemResetWarning,0831.2,4.98,000.00,018.9,018.8,000.0,027.2,020.1,10.9,0000.0,0002.90,0002.20,0001.96
2023-11-26 10:35:00,SystemResetWarning,0831.2,5.01,000.00,018.9,018.5,000.0,027.2,020.0,11.1,0000.0,0002.93,0002.19,0001.94
2023-11-26 10:36:00,SystemResetWarning,0831.3,5.00,000.00,018.9,018.3,000.0,027.3,020.0,11.1,0000.0,0002.88,0002.14,0001.90
2023-11-26 10:37:00,SystemResetWarning,0831.2,5.00,000.00,018.8,018.1,000.0,027.3,020.0,11.2,0000.0,0002.81,0002.08,0001.88
2023-11-26 10:38:00,SystemResetWarning,0831.2,5.00,000.00,018.8,017.9,000.0,027.3,020.0,11.2,0000.0,0002.85,0002.09,0001.85
2023-11-26 10:39:00,SystemResetWarning,0831.2,5.00,000.00,018.8,017.8,000.0,027.3,020.0,11.2,0000.0,0002.81,0002.06,0001.82
2023-11-26 10:40:00,SystemResetWarning,0831.2,5.00,000.00,018.8,017.7,000.0,027.3,020.0,11.2,0000.0,0002.83,0002.06,0001.81
2023-11-26 10:41:00,SystemResetWarning,0831.2,5.00,000.00,018.8,018.1,000.0,027.2,020.4,11.0,0000.0,0002.79,0002.05,0001.80
2023-11-26 10:42:00,SystemResetWarning,0831.2,5.00,000.00,019.0,018.9,000.0,027.2,020.8,10.9,0000.0,0002.62,0002.02,0001.79
2023-11-26 10:43:00,SystemResetWarning,0831.2,4.99,000.00,019.0,019.0,000.0,027.2,020.4,10.9,0000.0,0002.48,0002.01,0001.79
2023-11-26 10:44:00,SystemResetWarning,0831.2,5.00,000.00,018.9,018.8,000.0,027.2,020.0,11.0,0000.0,0002.66,0002.03,0001.80
2023-11-26 10:45:00,SystemResetWarning,0831.2,5.00,000.00,018.9,018.5,000.0,027.2,020.0,11.0,0000.0,0002.66,0002.05,0001.80
2023-11-26 10:46:00,SystemResetWarning,0831.3,5.00,000.00,018.8,018.3,000.0,027.2,020.0,11.0,0000.0,0002.61,0002.03,0001.79
2023-11-26 10:47:00,SystemResetWarning,0831.3,5.00,000.00,018.8,018.1,000.0,027.3,020.0,11.0,0000.0,0002.63,0002.03,0001.78
2023-11-26 10:48:00,SystemResetWarning,0831.3,4.99,000.00,018.8,018.0,000.0,027.3,020.0,11.1,0000.0,0002.61,0002.03,0001.78
2023-11-26 10:49:00,SystemResetWarning,0831.3,5.01,000.00,018.8,017.8,000.0,027.3,020.0,11.1,0000.0,0002.59,0002.02,0001.78
2023-11-26 10:50:00,SystemResetWarning,0831.2,5.00,000.00,018.8,017.7,000.0,027.3,020.0,11.1,0000.0,0002.51,0001.98,0001.78
2023-11-26 10:51:00,SystemResetWarning,0831.2,5.00,000.00,018.8,018.0,000.0,027.2,020.3,11.1,0000.0,0002.96,0001.93,0001.76
2023-11-26 10:52:00,SystemResetWarning,0831.3,4.99,000.00,019.0,018.8,000.0,027.2,020.7,11.0,0000.0,0003.73,0001.98,0001.76
2023-11-26 10:53:00,SystemResetWarning,0831.3,5.00,000.00,019.0,019.0,000.0,027.2,020.5,10.8,0000.0,0003.93,0002.02,0001.76
2023-11-26 10:54:00,SystemResetWarning,0831.3,4.99,000.00,018.9,018.8,000.0,027.2,020.0,10.8,0000.0,0004.14,0002.08,0001.75
2023-11-26 10:55:00,SystemResetWarning,0831.2,4.99,000.00,018.9,018.5,000.0,027.2,020.0,10.7,0000.0,0004.17,0002.09,0001.75
2023-11-26 10:56:00,SystemResetWarning,0831.2,5.00,000.00,018.9,018.3,000.0,027.2,020.0,10.6,0000.0,0004.24,0002.13,0001.76
2023-11-26 10:57:00,SystemResetWarning,0831.2,5.00,000.00,018.8,018.1,000.0,027.3,020.0,10.6,0000.0,0004.19,0002.11,0001.76
2023-11-26 10:58:00,SystemResetWarning,0831.2,5.01,000.00,018.8,018.0,000.0,027.3,020.0,10.5,0000.0,0004.16,0002.11,0001.78
2023-11-26 10:59:00,SystemResetWarning,0831.2,5.01,000.00,018.8,017.9,000.0,027.2,020.0,10.4,0000.0,0004.21,0002.10,0001.78
